Tracking 23758 objects as of 28-Oct-2021
HD Live streaming from Space Station
objects crossing your sky now

OBJECT F

Track OBJECT F now!
10-day predictions


NORAD ID: 43854
Int'l Code: 2018-104F
Perigee: 483.6 km
Apogee: 508.4 km
Inclination: 85.0 °
Period: 94.4 minutes
Semi major axis: 6866 km
RCS: Unknown
Launch date: December 16, 2018
Source: United States (US)
Launch site: Rocket Lab Launch Complex (RLLC)
aabbcc
Your satellite tracking list
Your tracking list is empty




NASA's NSSDC Master Catalog

Two Line Element Set (TLE):
1 43854U 18104F   21301.03332521  .00006396  00000-0  24879-3 0  9991
2 43854  85.0317 204.1194 0018062  27.3228 332.8961 15.25653869159313
Source of the keplerian elements: Caltech